DECAYED

OBJECT J, 49323 (Decayed)

Orbit data source: Space-Track

You're viewing an Uncataloged Satellite

Recently launched and/or uncataloged satellites may have evolving metadata. Metadata may include but not limited to: Owner, Maufacturer, Bus, Motor, and Mission.

OBJECT J, 49323 was a Chinese satellite in LEO that was launched on Thu, 14 Oct 2021 UTC via a CHANG ZHENG 2D launch vehicle from the Taiyaun Space Center, China (TSC). Unknown objects in Earth's orbit typically refer to objects detected orbiting the Earth but have not yet been identified or cataloged. These objects could be anything from previously untracked satellites, spent rocket stages, debris from satellite collisions, or even natural meteoroids temporarily captured by Earth's gravity. This object's orbit decayed before it could be identified.

Not visible in the next 10 days
Identifier
49323, 2021-091J
Orbit
Decayed
Country
Flag of CNCN / PRC
Related business
None
Manufacturer
Unknown
Mission
Decayed Commercial Weather
Bus & Motor
Unknown
Mass
Unknown
Launch date (UTC)
2021-10-14 (4 years ago)
Launch vehicle
CHANG ZHENG 2D
Launch site
Taiyaun Space Center, China (TSC)
Object type
Unknown
Shape & HBR
Box, 0.3 m
Radar Cross Section
0.375 m², Medium (>0.1 m² and < 1m²)

Expand to show TLE details & history
Last TLE update: 10 months ago

TLE from 10 months ago
0 OBJECT J
1 49323U 21091J   25031.52303632  .07225704  24322-5  13400-2 0  9994
2 49323  97.3692 245.3295 0005496 303.1516  56.9251 16.32265214184522
Epoch: 2025-01-31T12:33Z
TLE epoch observation values (Epoch: 2025-01-31T12:33:10.338Z)
Latitude
-0.00006°
Longitude
-73.94809°
Altitude
187.733 km
Speed
7.795 km/s
True Right ascension
16h 21m 19s
True Declination
0° 00' 00"
Sunlit
Object was in daylight at epoch
Visualization orbit readout
Latitude
Unknown
Longitude
Unknown
Altitude
Unknown
Speed
Unknown
Apparent Right ascension
Unknown
Apparent Declination
Unknown
Sunlit
N/A
Visualization observer readout
Local Sidereal Time
13:24:40
Azimuth
Unknown
Elevation
Unknown
Doppler factor
Unknown
Orbital elements
Apogee altitude
186.882 km
Perigee altitude
179.669 km
Semi-major axis
6,561.413 km
Eccentricity
0.00055
Inclination
97.3692°
RAAN
245.3295°
Arg. of periapsis
303.1516°
True anomaly
56.97789°
Mean anomaly
56.9251°
Eccentric anomaly
56.9515°
Mean motion
4.08364 °/min
Orbital period
88.16 mins
BSTAR
0.00134
Loading maneuver chart data...
Computing Atmospheric mass density...
Loading historical data...
Loading historical data...
Loading historical data...
Loading historical data...
Loading historical data...
Loading historical data...
Loading historical data...

Documentation

Showing up to 5 results
|